User: anonymous   Login
Location: Bukovany
(49.8234°N, 14.6297°E)
Time: 16:55:49
(UTC+00:00)
Language:

IRS-1C - Orbit

View from above orbital plane
View from above orbital plane
View from above satellite
View from above satellite

Ground track
Ground track

The orbit is defined by the following mean orbital elements,

1 23751U          26020.97319316 +.00000000 +00000-0 +12945-3 0 00004
2 23751  99.0300  36.2406 0001088  84.8103 275.3198 14.23522985    09
Epoch (UTC): 20 January 2026 23:21:23
Eccentricity: 0.0001088
inclination: 99.0300°
perigee height: 813 km
apogee height: 814 km
right ascension of ascending node: 36.2406°
argument of perigee: 84.8103°
revolutions per day: 14.23522985
mean anomaly at epoch: 275.3198°

The dashed part of the orbit path shows where the satellite is in the earth's shadow,  

DLR